This is the latest recevied weather packets stored in our database for station/object HA5CD-6. If no packets are shown the sender has not sent any weather packets the latest 10 day(s).
| Time | Temp. | Humidity | Pressure | Rain* | Wind** | Luminosity | Snow |
|---|---|---|---|---|---|---|---|
| 1777979601 | 29.44° C | 23% | 989 hPa | - | - | - | - |
| 1777978956 | 28.89° C | 23% | 989 hPa | - | - | - | - |
| 1777978355 | 28.33° C | 23% | 989 hPa | - | - | - | - |
| 1777977755 | 28.33° C | 23% | 990 hPa | - | - | - | - |
| 1777977154 | 28.33° C | 23% | 990 hPa | - | - | - | - |
| 1777976556 | 28.89° C | 22% | 990 hPa | - | - | - | - |
| 1777975954 | 28.89° C | 24% | 990 hPa | - | - | - | - |
| 1777975356 | 28.33° C | 24% | 990 hPa | - | - | - | - |
| 1777974754 | 29.44° C | 23% | 990 hPa | - | - | - | - |
| 1777974154 | 28.33° C | 23% | 990 hPa | - | - | - | - |
| 1777973557 | 29.44° C | 23% | 990 hPa | - | - | - | - |
| 1777972954 | 29.44° C | 24% | 990 hPa | - | - | - | - |
| 1777971753 | 30.56° C | 24% | 990 hPa | - | - | - | - |
| 1777971152 | 30° C | 23% | 990 hPa | - | - | - | - |
| 1777970552 | 30° C | 24% | 991 hPa | - | - | - | - |
| 1777969952 | 29.44° C | 25% | 990 hPa | - | - | - | - |
| 1777968754 | 30° C | 24% | 991 hPa | - | - | - | - |
| 1777968154 | 30° C | 25% | 991 hPa | - | - | - | - |
| 1777966974 | 29.44° C | 26% | 991 hPa | - | - | - | - |
| 1777966365 | 30.56° C | 25% | 991 hPa | - | - | - | - |
| 1777965789 | 30.56° C | 25% | 991 hPa | - | - | - | - |
| 1777964554 | 27.22° C | 28% | 991 hPa | - | - | - | - |
| 1777963954 | 28.89° C | 26% | 991 hPa | - | - | - | - |
| 1777962877 | 27.22° C | 26% | 991 hPa | - | - | - | - |
| 1777962188 | 26.67° C | 27% | 991 hPa | - | - | - | - |
* Rain since midnight (hover to see other rain measurements)
** Current wind speed in m/s (hover to see current wind gust speed)